STARLINK-11507 [DTC] (62519 NORAD) Tracking and Keplerian Element Data

This shows tracking and keplerian element data for the satellite.

Feedback or suggestion? Click here.




ElementValue
Catalog62519
NameSTARLINK-11507 [DTC]
Epoch Orbit5461
Epoch Day353.61612667
Epoch Year2025
RAAN193.5103
Inclination42.9966
Eccentricity0.0001267
Argument of Perigee199.3654
Mean Anonmoly160.7165
Mean Motion15.70952591
Decay Rate0.00153142
L11 62519U 25004J 25353.61612667 .00153142 00000+0 11696-2 0 9997
L22 62519 42.9966 193.5103 0001267 199.3654 160.7165 15.70952591 54612



Live tracking and technical data element details for STARLINK-11507 [DTC] (NORAD 62519). STARLINK-11507 [DTC] can be tracked NOW for your location showing map with azimuth and elevation plus other details from your city location.







IsCatalogInMostPopularTable: catalog: 62519, numindb: 85
Update: records affected: 1



GetName: 62519 STARLINK-11507 [DTC]

Hit Count: updated at: Mon, 09 Feb 2026 09:32:51 GMT